Location: Rockford
(42.2710°N, 89.0940°W)
Time: 14:21:06
(UTC-05:00)

Daily predictions for brighter satellites

Satellite Brightness Start Highest point End
(mag) Time Altitude Azimuth Time Altitude Azimuth Time Altitude Azimuth
NOSS 5 (C) 4.4 21:11:58 10° SSW 21:15:57 69° SE 21:19:07 10° NE
Cosmos 1437 4.4 21:13:48 10° NNE 21:16:10 19° ENE 21:18:30 10° ESE
H-2A R/B 2.7 21:12:36 10° SE 21:17:33 44° ENE 21:22:39 10° N
Cosmos 1943 3.8 21:16:34 10° NNW 21:22:05 55° WSW 21:27:33 10° S
Cosmos 1400 Rocket 3.1 21:21:55 10° SSW 21:25:57 74° W 21:29:57 10° N
Cosmos 1825 Rocket 3.7 21:21:45 10° S 21:26:08 61° E 21:30:33 10° NNE
Aureole 1 Rocket 2.4 21:24:09 10° S 21:27:12 58° ESE 21:30:50 10° NNE
Cosmos 1269 Rocket 4.5 21:24:06 10° S 21:29:02 41° ESE 21:34:01 10° NNE
Cosmos 2285 Rocket 4.2 21:24:33 10° S 21:30:38 51° ESE 21:36:43 10° NNE
ERS-2 3.3 21:27:13 10° S 21:30:42 41° W 21:34:12 10° NNW
NOSS 2-3 (D) 4.5 21:27:10 10° SW 21:31:41 62° NW 21:37:01 10° NNE
Cosmos 921 Rocket 4.3 21:29:47 10° N 21:33:40 28° ENE 21:37:07 12° ESE
Cosmos 1726 4.1 21:32:16 10° NNE 21:34:43 16° ENE 21:36:55 11° ESE
Terra 3.8 21:32:22 10° E 21:35:07 15° ENE 21:37:51 10° NNE
Cosmos 1346 Rocket 3.6 21:32:48 10° N 21:36:33 37° ENE 21:39:41 14° SE
ATLAS 3B R/B 3.8 21:30:46 10° NNW 21:36:40 32° NE 21:42:27 10° ESE
ARGOS 3.2 21:33:20 10° SSE 21:38:45 82° ENE 21:44:12 10° NNW
Cosmos 2266 Rocket 4.4 21:36:38 10° NNW 21:43:01 70° W 21:49:16 10° S
Cosmos 1844 4.3 21:40:44 10° S 21:45:50 35° ESE 21:51:01 10° NE
Cosmos 1844 Rocket 2.9 21:43:45 10° S 21:49:11 49° ESE 21:54:37 10° NE
Meteor 1-24 Rocket 3.9 21:44:43 10° S 21:50:42 70° E 21:56:42 10° NNE
MetOp-A 4.2 21:46:05 10° SSE 21:51:26 81° WSW 21:56:50 10° NNW
Nadezhda 2 Rocket 4.5 21:49:07 10° N 21:55:26 82° E 22:01:19 11° S
Meteor 2-5 Rocket 4.3 21:54:39 10° SSW 22:00:33 66° WNW 22:06:28 10° N
ATLAS 2AS CENTAUR R/B 3.0 21:53:20 10° SSW 22:01:01 68° ESE 22:09:05 10° NE
SPOT 5 3.3 21:59:19 17° SE 22:02:59 53° ENE 22:08:06 10° N
Iridium 18 4.3 22:07:53 23° SSE 22:09:43 66° E 22:13:22 10° N
ERS-1 Rocket 3.0 22:06:47 16° SSE 22:10:54 84° WSW 22:15:58 10° NNW
Lacrosse 5 2.0 22:05:57 10° SW 22:11:00 79° NW 22:16:05 10° NE
Cosmos 2082 Rocket 4.4 22:08:00 10° NNE 22:11:03 14° NE 22:14:04 10° ENE
Cosmos 1238 Rocket 2.9 22:08:22 10° SSW 22:11:14 49° W 22:14:10 10° N
Cosmos 1908 3.2 22:09:10 10° N 22:13:01 68° E 22:15:13 24° SSE
IGS 5A 4.3 22:12:05 22° ESE 22:14:10 36° ENE 22:17:59 10° N
Cosmos 1553 Rocket 4.0 22:09:12 14° S 22:14:20 61° E 22:20:19 10° NNE
Cosmos-2242 3.2 22:11:14 10° NNW 22:15:37 74° W 22:18:55 17° S
OE (NEXTSAT) 4.3 22:13:01 10° WNW 22:16:34 73° SSW 22:18:12 29° SE
Meteor 2-1 Rocket 4.3 22:12:37 10° N 22:18:35 75° E 22:22:44 20° SSE
Cosmos 1842 Rocket 4.0 22:17:05 10° N 22:21:15 44° ENE 22:23:15 26° SE
Meteor 1-29 3.8 22:20:46 10° NE 22:23:49 30° E 22:24:13 29° ESE
Cosmos 2084 3.2 22:21:48 10° NW 22:25:38 68° SW 22:27:20 31° SSE
SL-8 R/B 3.6 22:25:38 10° SW 22:30:26 72° SSE 22:35:16 10° ENE
OAO 3 Rocket 3.8 22:26:34 10° WSW 22:31:03 35° S 22:32:33 29° SE
CZ-2C R/B 3.6 22:29:26 10° NE 22:34:10 30° E 22:35:50 25° SE
Cosmos 1340 2.6 22:30:42 10° N 22:34:30 70° E 22:35:53 36° SSE
Cosmos 1626 3.8 22:35:20 19° E 22:35:24 19° E 22:38:07 10° NE
NOSS 3-4 (A) 4.0 22:35:38 24° SSE 22:38:25 36° ESE 22:44:07 10° NE
NOSS 3-4 (C) 4.0 22:35:49 25° SSE 22:38:30 36° ESE 22:44:12 10° NE
Helios 1A 3.1 22:36:24 27° S 22:38:36 70° WSW 22:42:48 10° NNW
Cosmos 807 4.0 22:45:01 61° ESE 22:45:11 63° E 22:48:15 10° NNE
Cosmos 1300 3.0 22:42:20 10° N 22:46:05 50° E 22:46:59 40° ESE
Cosmos 1674 3.8 22:43:16 14° SSW 22:46:17 42° WNW 22:49:58 10° N
CENTAUR R/B 4.3 22:39:35 10° NNW 22:46:36 35° NE 22:54:10 10° ESE
Helios 1B rocket 2.4 22:48:10 10° N 22:52:17 81° WNW 22:54:22 28° SSW
Landsat 7 4.0 22:50:31 28° S 22:52:57 65° WSW 22:57:42 10° NNW
Meteor 1-21 Rocket 4.2 22:49:44 24° S 22:53:29 81° E 22:59:19 10° NNE
SPOT 1/Viking Rocket 4.1 22:53:26 23° SSW 22:56:28 51° W 23:01:29 10° NNW
H-2A R/B 3.9 22:52:53 10° SSW 22:57:08 25° W 23:01:29 10° NW
APEX 2.7 22:59:46 10° NNW 23:02:51 80° ENE 23:03:12 68° SE
Cosmos 2221 2.5 23:00:41 10° N 23:05:01 70° E 23:06:07 48° SSE
Cosmos 2278 Rocket 2.1 23:05:21 29° S 23:08:19 71° ESE 23:14:00 10° NNE
Cosmos 1745 Rocket 4.3 23:02:18 10° NNW 23:08:35 65° W 23:12:13 26° SSW
Cosmos 1726 3.6 23:06:43 10° NNW 23:10:04 31° W 23:11:29 23° SW
SL-14 R/B 3.4 23:11:02 42° SSW 23:12:11 69° W 23:16:06 10° N
Terra 2.0 23:10:29 36° S 23:12:19 64° WSW 23:17:04 10° NNW
SL-27 R/B 4.4 23:10:34 10° NNE 23:13:20 20° ENE 23:13:50 19° ENE
COSMOS 2406 3.8 23:11:33 10° NW 23:17:06 49° WSW 23:19:32 30° SSW
USA 238 DEB 4.2 23:17:29 10° NW 23:24:21 51° WSW 23:27:33 31° S
USA 238 4.2 23:17:35 10° NW 23:24:28 51° WSW 23:27:39 31° S
BREEZE-M DEB (TANK) 3.7 23:17:29 10° SW 23:26:09 55° SSE 23:29:53 10° ENE
ATLAS 3B R/B 2.8 23:21:13 10° NW 23:27:44 61° WSW 23:30:17 37° S
Spot 4 3.8 23:30:38 50° SSE 23:31:52 76° ENE 23:36:44 10° N
NOSS 2-2 (C) 3.5 23:34:49 55° E 23:34:49 55° E 23:38:35 10° NE
CZ-2C R/B 3.9 23:34:52 31° SSW 23:37:21 51° W 23:42:59 10° NNW
NOSS 3-2 (A) 4.1 23:30:32 10° NW 23:38:06 66° WSW 23:41:45 36° S
SAR-Lupe-4 3.6 23:39:03 69° NE 23:39:03 69° NE 23:42:28 10° N
Cosmos 1703 3.5 23:40:49 56° E 23:40:49 56° E 23:44:26 10° NNE
Cosmos 1461 3.3 23:39:29 32° SW 23:41:35 71° NW 23:46:23 10° NNE
ALOS 2 3.8 23:41:19 28° E 23:42:05 30° ENE 23:45:55 10° N
Cosmos 1709 Rocket 4.1 23:36:02 10° NNW 23:42:15 71° W 23:44:40 38° SSW
Meteor 1-27 4.5 23:38:03 10° N 23:43:50 62° ENE 23:45:34 43° SE
RESURS DK-1 3.0 23:48:17 43° E 23:48:17 43° E 23:51:39 10° NE
Cosmos 2297 3.8 23:47:58 49° SSE 23:49:04 58° ESE 23:54:41 10° NNE
Lacrosse 5 4.3 23:50:41 10° WNW 23:54:41 23° NNW 23:58:41 10° NNE
Cosmos 1766 Rocket 3.4 23:54:48 74° SSE 23:55:10 83° E 23:59:40 10° N
